Weather observations for the past three days for
Bellingham, Bellingham International Airport
Imperial (Metric)
Date Time (pdt) Wind (mph) Vis. (mi.) Weather Sky Cond. Temperature (ºF) Relative Humidity Wind Chill (°F) Heat Index (°F) Pressure Precipitation (in)
Air Dwpt 6 hour altimeter (in) sea level (mb) 1 hr 3 hr 6 hr
Max. Min.
21 14:53 S 3 10.00 Fair CLR 72 61 68% 30.04 1017.6
21 13:53 W 8 10.00 Partly Cloudy FEW060 FEW075 SCT100 69.1 61 76% 30.04 1017.7
21 12:53 S 7 10.00 Fair CLR 64 59 84% 30.09 1019.6
21 11:53 Vrbl 5 10.00 Fair CLR 66 57.9 75% 30.09 1019.3
21 10:53 S 10 10.00 A Few Clouds FEW020 64 57.9 64.9 59 81% 30.06 1018.5
21 09:53 S 7 10.00 Fair CLR 62.1 57 84% 30.05 1018.0
21 08:53 S 7 10.00 Fair CLR 62.1 57 84% 30.05 1017.9
21 07:53 S 7 10.00 Fair CLR 62.1 57 84% 30.05 1018.0
21 06:53 S 9 G 20 10.00 Fair CLR 59 55.9 90% 30.08 1019.0
21 05:53 S 7 10.00 Fair CLR 59 57 93% 30.06 1018.2
21 04:53 S 5 10.00 Fair CLR 60.1 57.9 66.9 59 93% 30.02 1016.9
21 03:53 Calm 10.00 Fair CLR 60.1 57.9 93% 30 1016.2
21 02:53 S 5 10.00 Fair CLR 62.1 57.9 86% 30 1016.5
21 01:53 S 7 10.00 Fair CLR 63 57.9 84% 30.01 1016.8
21 00:53 S 6 10.00 Fair CLR 63 59 87% 30.02 1016.9
20 23:53 S 6 10.00 Fair CLR 64.9 59 81% 30.02 1017.1
20 22:53 S 9 10.00 Fair CLR 66.9 59 82.9 66.9 76% 30.02 1017.0
20 21:53 S 6 10.00 Fair CLR 68 60.1 76% 30.02 1017.0
20 20:53 S 3 10.00 Fair CLR 70 60.1 71% 30.01 1016.8
20 19:53 S 3 10.00 Fair CLR 75.9 60.1 58% 78 30.02 1016.9
20 18:53 Vrbl 3 10.00 Fair CLR 80.1 53.1 39% 80 30.02 1017.0
20 17:53 W 6 10.00 Fair CLR 82 55.9 41% 82 30.03 1017.3
20 16:53 NW 5 10.00 Fair CLR 82.9 55.9 82.9 71.1 40% 82 30.05 1018.2
20 15:53 Calm 10.00 Fair CLR 82 57 43% 82 30.08 1019.0
20 14:53 Vrbl 6 10.00 Fair CLR 81 57.9 45% 81 30.09 1019.4
20 13:53 Vrbl 7 10.00 Fair CLR 80.1 55.9 44% 80 30.11 1020.1
20 12:53 Vrbl 5 10.00 Fair CLR 75.9 59 56% 78 30.13 1020.6
20 11:53 Vrbl 5 10.00 Fair CLR 73.9 62.1 67% 30.14 1021.0
20 10:53 Vrbl 5 10.00 Fair CLR 71.1 61 72 54 71% 30.15 1021.4
20 09:53 SW 5 10.00 Fair CLR 69.1 60.1 73% 30.15 1021.5
20 08:53 Vrbl 3 10.00 Fair CLR 66.9 59 76% 30.15 1021.5
20 07:53 S 3 10.00 Fair CLR 63 57.9 84% 30.15 1021.5
20 06:53 S 3 10.00 Fair CLR 61 57.9 90% 30.15 1021.4
20 05:53 Calm 10.00 Fair CLR 57 55.9 96% 30.14 1021.2
20 04:53 Calm 10.00 Fair CLR 54 54 62.1 54 100% 30.14 1021.3
20 03:53 S 3 10.00 Fair CLR 57 55.9 96% 30.14 1021.3
20 02:53 S 5 10.00 Fair CLR 60.1 57.9 93% 30.14 1021.2
20 01:53 S 5 10.00 Fair CLR 62.1 59 90% 30.15 1021.3
20 00:53 S 5 10.00 Fair CLR 62.1 59 90% 30.14 1021.3
19 23:53 Calm 10.00 Fair CLR 60.1 57.9 93% 30.14 1021.4
19 22:53 Calm 10.00 Fair CLR 61 59 75 61 93% 30.14 1021.1
19 21:53 S 7 10.00 Fair CLR 66 59 78% 30.13 1021.0
19 20:53 S 7 10.00 Fair CLR 66.9 59 76% 30.12 1020.6
19 19:53 S 3 10.00 Fair CLR 70 60.1 71% 30.13 1020.7
19 18:53 S 6 10.00 Fair CLR 73.9 55.9 54% 30.13 1020.7
19 17:53 S 6 10.00 Fair CLR 75 54 48% 78 30.14 1021.0
19 16:53 S 6 10.00 Fair CLR 75 54 75.9 64.9 48% 78 30.16 1021.6
19 15:53 Vrbl 5 10.00 Fair CLR 75 53.1 46% 78 30.17 1022.1
19 14:53 Vrbl 5 10.00 Fair CLR 73 55 53% 30.18 1022.6
19 13:53 S 14 10.00 Fair CLR 72 57.9 61% 30.19 1022.6
19 12:53 S 13 G 20 10.00 Fair CLR 69.1 57.9 68% 30.19 1022.9
19 11:53 S 9 G 18 10.00 Fair CLR 66.9 57.9 73% 30.2 1023.1
19 10:53 SW 9 G 20 10.00 Fair CLR 66 57 66 60.1 73% 30.19 1023.0
19 09:53 S 8 10.00 Fair CLR 64 57 78% 30.19 1022.8
19 08:53 S 8 G 18 10.00 Fair CLR 62.1 57 84% 30.18 1022.6
19 07:53 S 10 10.00 Fair CLR 62.1 57 84% 30.17 1022.3
19 06:53 S 8 10.00 Fair CLR 61 55.9 84% 30.16 1021.8
19 05:53 SW 3 10.00 Fair CLR 60.1 55 84% 30.14 1021.1
19 04:53 S 8 10.00 Fair CLR 60.1 55 64 59 84% 30.13 1020.8
19 03:53 S 3 10.00 Fair CLR 60.1 55 84% 30.12 1020.4
19 02:53 S 3 10.00 Fair CLR 60.1 55 84% 30.11 1020.0
19 01:53 S 5 10.00 Fair CLR 62.1 55.9 80% 30.11 1019.9
19 00:53 S 7 10.00 Fair CLR 62.1 57 84% 30.1 1019.6
18 23:53 S 7 10.00 Fair CLR 63 55.9 78% 30.09 1019.2
18 22:53 S 10 G 21 10.00 Fair CLR 64 57.9 70 64 81% 30.07 1018.8
18 21:53 S 10 G 21 10.00 Fair CLR 66.9 57 71% 30.05 1018.1
18 20:53 S 13 10.00 Fair CLR 68 57 68% 30.04 1017.8
18 19:53 S 13 G 23 10.00 Fair CLR 68 57 68% 30.03 1017.4
18 18:53 S 13 G 22 10.00 Fair CLR 68 57.9 70% 30.02 1017.0
18 17:53 S 8 10.00 Fair CLR 69.1 57 66% 30.02 1017.0
18 16:53 S 12 G 20 10.00 Fair CLR 69.1 57.9 72 66 68% 30.02 1017.3
18 15:53 S 8 10.00 Fair CLR 71.1 59 66% 30.04 1017.6
Date Time (pdt) Wind (mph) Vis. (mi.) Weather Sky Cond. Air Dwpt Max. Min. Relative Humidity Wind Chill (°F) Heat Index (°F) altimeter (in) sea level (mb) 1 hr 3 hr 6 hr
6 hour
Temperature (ºF) Pressure Precipitation (in)